Home   Weather   Perth   Past weeks
Flag for Australia

Past Weather in Perth, Western Australia, Australia — Yesterday and Last 2 Weeks

Now
64 °F

Partly cloudy.


Feels Like: 64 °F
Forecast: 77 / 58 °F
Wind: 16 mph from Southeast

Location: Belmont Perth Airport

Current Time: Mar 23, 2019 at 1:18:50 am

Latest Report: Mar 23, 2019 at 12:30 am


Visibility: N/A

Pressure: 30.04 "Hg

Humidity: 68%

Dew Point: 54 °F

Location of PerthLocation

Past Weather in Perth — Graph

°F

Perth Temperature Yesterday

Maximum temperature yesterday: 84 °F (at 2:00 pm)
Minimum temperature yesterday: 66 °F (at 4:30 am)
Average temperature yesterday: 75 °F

High & Low Weather Summary for the Past Weeks

 TemperatureHumidityPressure
High99 °F (Mar 18, 1:00 pm)100% (Mar 20, 4:30 am)30.12 "Hg (Mar 20, 4:30 am)
Low59 °F (Mar 13, 5:30 am)22% (Mar 11, 4:00 pm)29.77 "Hg (Mar 18, 2:30 pm)
Average76 °F63%29.92 "Hg
* Reported Mar 8 12:00 am — Mar 23 12:00 am, Perth. Weather by CustomWeather, © 2019

Note: Actual official high and low records may vary slightly from our data, if they occured in-between our weather recording intervals... More about our weather records

Advertising

Perth Weather History for the Previous 24 Hours

Scroll right to see more
 ConditionsComfort  
Time TempWeatherWind HumidityBarometerVisibility
12:00 am
Sat, Mar 23
66 °FPassing clouds.20 mph64%30.04 "HgN/A
11:30 pm
Fri, Mar 22
66 °FPassing clouds.20 mph68%30.04 "HgN/A
11:00 pm66 °FPassing clouds.14 mph68%30.04 "HgN/A
10:30 pm68 °FPassing clouds.16 mph64%30.01 "HgN/A
10:00 pm68 °FPassing clouds.17 mph69%30.01 "HgN/A
9:30 pm70 °FPassing clouds.21 mph64%30.01 "HgN/A
9:00 pm72 °FPassing clouds.20 mph65%29.98 "HgN/A
8:30 pm72 °FPassing clouds.21 mph65%29.98 "HgN/A
8:00 pm75 °FPassing clouds.20 mph57%29.95 "HgN/A
7:30 pm75 °FPassing clouds.18 mph57%29.92 "HgN/A
7:00 pm77 °FPassing clouds.15 mph54%29.89 "HgN/A
6:30 pm79 °FPassing clouds.13 mph48%29.89 "HgN/A
6:00 pm79 °FPassing clouds.20 mph48%29.89 "HgN/A
5:30 pm81 °FPartly sunny.21 mph45%29.86 "HgN/A
5:00 pm81 °FPassing clouds.21 mph48%29.86 "HgN/A
4:30 pm82 °FScattered clouds.20 mph45%29.86 "HgN/A
4:00 pm84 °FScattered clouds.22 mph45%29.86 "HgN/A
3:30 pm84 °FPassing clouds.17 mph45%29.83 "HgN/A
3:00 pm84 °FPassing clouds.12 mph45%29.83 "HgN/A
2:30 pm84 °FScattered clouds.13 mph45%29.83 "HgN/A
2:00 pm84 °FPartly sunny.13 mph45%29.86 "HgN/A
1:00 pm82 °FScattered clouds.14 mph48%29.86 "HgN/A
12:30 pm82 °FScattered clouds.15 mph51%29.86 "HgN/A
12:00 pm81 °FScattered clouds.12 mph54%29.86 "HgN/A
11:30 am81 °FScattered clouds.13 mph54%29.86 "HgN/A
10:30 am81 °FPassing clouds.17 mph58%29.89 "HgN/A
10:00 am79 °FPassing clouds.10 mph58%29.89 "HgN/A
9:30 am77 °FPassing clouds.9 mph61%29.92 "HgN/A
8:30 am75 °FPassing clouds.9 mph65%29.89 "HgN/A
8:00 am73 °FScattered clouds.9 mph69%29.89 "HgN/A
7:30 am70 °FScattered clouds.9 mph78%29.89 "HgN/A
7:00 am70 °FPassing clouds.10 mph78%29.86 "HgN/A
6:30 am68 °FSunny.9 mph83%29.86 "Hg10 mi
6:00 am70 °FClear.10 mph78%29.83 "Hg10 mi
5:30 am70 °FClear.10 mph73%29.83 "Hg10 mi
5:00 am68 °FClear.10 mph78%29.83 "Hg10 mi
4:30 am66 °FClear.8 mph83%29.83 "Hg10 mi
4:00 am68 °FClear.7 mph78%29.83 "Hg10 mi
3:30 am68 °FClear.6 mph78%29.80 "Hg10 mi
3:00 am72 °FClear.7 mph69%29.80 "Hg10 mi
2:30 am73 °FClear.9 mph65%29.80 "Hg10 mi
2:00 am72 °FPassing clouds.5 mph69%29.80 "HgN/A
1:30 am70 °FPassing clouds.7 mph83%29.80 "HgN/A
1:00 am70 °FClear.6 mph83%29.83 "Hg10 mi
Weather by CustomWeather, © 2019

See weather overview